This is the latest recevied weather packets stored in our database for station/object KB3YCK-2. If no packets are shown the sender has not sent any weather packets the latest 10 day(s).
| Time | Temp. | Humidity | Pressure | Rain* | Wind** | Luminosity | Snow |
|---|---|---|---|---|---|---|---|
| 1777536306 | 8.89° C | 87% | 1007.1 hPa | 0 mm | - | 0 W/m² | - |
| 1777532706 | 8.89° C | 87% | 1007.4 hPa | 0 mm | - | 0 W/m² | - |
| 1777531202 | 8.89° C | 87% | 1007.6 hPa | 0 mm | - | 0 W/m² | - |
| 1777529407 | 8.89° C | 87% | 1008 hPa | 0 mm | - | 0 W/m² | - |
| 1777528207 | 8.89° C | 87% | 1008.3 hPa | 0 mm | - | 0 W/m² | - |
| 1777525223 | 8.89° C | 87% | 1008.5 hPa | 0.25 mm | - | 0 W/m² | - |
| 1777521626 | 8.89° C | 87% | 1009.3 hPa | 0.25 mm | - | 0 W/m² | - |
| 1777518605 | 8.89° C | 86% | 1008.9 hPa | 2.03 mm | - | 0 W/m² | - |
| 1777518303 | 8.89° C | 86% | 1009 hPa | 2.29 mm | - | 0 W/m² | - |
| 1777515304 | 8.89° C | 86% | 1009.3 hPa | 3.56 mm | - | 0 W/m² | - |
| 1777513803 | 8.89° C | 86% | 1010.4 hPa | 1.52 mm | - | 0 W/m² | - |
| 1777512308 | 8.89° C | 86% | 1009.9 hPa | 1.52 mm | - | 0 W/m² | - |
| 1777511403 | 8.89° C | 86% | 1009.7 hPa | 2.29 mm | - | 0 W/m² | - |
| 1777511104 | 8.89° C | 86% | 1009.5 hPa | 2.54 mm | - | 0 W/m² | - |
| 1777510503 | 8.89° C | 86% | 1009.6 hPa | 2.54 mm | - | 0 W/m² | - |
| 1777509020 | 8.89° C | 85% | 1009 hPa | 2.03 mm | - | 0 W/m² | - |
| 1777508406 | 9.44° C | 85% | 1008.8 hPa | 1.52 mm | - | 0 W/m² | - |
| 1777507804 | 10° C | 85% | 1009.1 hPa | 1.02 mm | - | 0 W/m² | - |
| 1777506904 | 10.56° C | 84% | 1009.4 hPa | 0.25 mm | - | 0 W/m² | - |
| 1777506004 | 10.56° C | 83% | 1009.7 hPa | 0 mm | - | 0 W/m² | - |
| 1777504804 | 11.11° C | 81% | 1009.7 hPa | 0 mm | - | 0 W/m² | - |
| 1777503904 | 11.11° C | 80% | 1010 hPa | 0 mm | - | 0 W/m² | - |
| 1777502105 | 11.67° C | 79% | 1009.9 hPa | 0 mm | - | 14 W/m² | - |
| 1777501506 | 12.22° C | 79% | 1009.8 hPa | 0 mm | - | 23 W/m² | - |
| 1777500904 | 12.22° C | 79% | 1009.9 hPa | 0 mm | - | 30 W/m² | - |
* Rain latest hour (hover to see other rain measurements)
** Current wind speed in m/s (hover to see current wind gust speed)